NSZ8503 ESSA-EFHK

Flight info

Callsign NSZ8503
Flight time 0h 46m
Altitude 31000
Route TOVRI N851 RIKUM DCT RIRIP Y364 LAKUT
Aircraft B738/M-SDE3GHIJ1LRWXY/SB1

Departure

Time 2026-04-26 15:13
Airport Stockholm-Arlanda Airport (ESSA)

Arrival

Time 2026-04-26 15:59
Airport Helsinki Vantaa Airport (EFHK)
Time Latitude Longitude Altitude Speed Heading
2026-04-26 14:57 59.65147 17.92699 110 ft 0 kts 190°
2026-04-26 15:01 59.65148 17.92699 83 ft 1 kts 190°
2026-04-26 15:01 59.65165 17.92705 111 ft 3 kts 191°
2026-04-26 15:01 59.65184 17.92712 111 ft 3 kts 191°
2026-04-26 15:01 59.65204 17.92720 111 ft 3 kts 191°
2026-04-26 15:02 59.65223 17.92727 111 ft 3 kts 191°
2026-04-26 15:02 59.65243 17.92734 110 ft 3 kts 191°
2026-04-26 15:02 59.65253 17.92738 108 ft 0 kts 191°
2026-04-26 15:05 59.65252 17.92738 108 ft 0 kts 191°
2026-04-26 15:05 59.65247 17.92696 110 ft 6 kts 276°
2026-04-26 15:05 59.65265 17.92563 111 ft 12 kts 288°
2026-04-26 15:06 59.65243 17.92417 110 ft 12 kts 211°
2026-04-26 15:06 59.65164 17.92374 111 ft 12 kts 191°
2026-04-26 15:06 59.65045 17.92330 111 ft 22 kts 191°
2026-04-26 15:06 59.64870 17.92264 111 ft 28 kts 190°
2026-04-26 15:07 59.64507 17.92132 112 ft 25 kts 190°
2026-04-26 15:07 59.64358 17.92072 113 ft 18 kts 208°
2026-04-26 15:07 59.64284 17.91894 112 ft 18 kts 201°
2026-04-26 15:08 59.64165 17.91849 113 ft 18 kts 192°
2026-04-26 15:08 59.64007 17.91789 111 ft 31 kts 191°
2026-04-26 15:08 59.63789 17.91645 106 ft 23 kts 220°
2026-04-26 15:08 59.63738 17.91401 108 ft 21 kts 298°
2026-04-26 15:09 59.63799 17.91350 109 ft 0 kts
2026-04-26 15:09 59.63800 17.91350 109 ft 0 kts
2026-04-26 15:10 59.63803 17.91351 109 ft 0 kts
2026-04-26 15:12 59.63805 17.91351 109 ft 1 kts
2026-04-26 15:12 59.63812 17.91353 108 ft 1 kts
2026-04-26 15:12 59.63960 17.91403 109 ft 64 kts 11°
2026-04-26 15:12 59.64694 17.91681 119 ft 146 kts
2026-04-26 15:13 59.65839 17.92112 705 ft 174 kts
2026-04-26 15:13 59.66993 17.92559 2096 ft 173 kts
2026-04-26 15:13 59.68230 17.93008 2863 ft 185 kts
2026-04-26 15:13 59.69520 17.93466 3504 ft 191 kts
2026-04-26 15:14 59.70840 17.93930 4250 ft 193 kts
2026-04-26 15:14 59.72174 17.94393 5014 ft 196 kts
2026-04-26 15:14 59.73520 17.94866 5797 ft 198 kts
2026-04-26 15:14 59.74829 17.96164 6123 ft 233 kts 40°
2026-04-26 15:15 59.75674 17.99173 6550 ft 269 kts 72°
2026-04-26 15:15 59.75803 18.02967 7338 ft 282 kts 89°
2026-04-26 15:15 59.75643 18.06887 8231 ft 288 kts 91°
2026-04-26 15:15 59.75468 18.10872 9126 ft 292 kts 91°
2026-04-26 15:16 59.75310 18.14923 10000 ft 297 kts 91°
2026-04-26 15:16 59.75209 18.19019 10600 ft 310 kts 86°
2026-04-26 15:16 59.75199 18.23463 10809 ft 335 kts 85°
2026-04-26 15:16 59.75210 18.28201 11306 ft 349 kts 85°
2026-04-26 15:17 59.75213 18.33053 12097 ft 354 kts 85°
2026-04-26 15:17 59.75209 18.36361 12675 ft 356 kts 84°
2026-04-26 15:17 59.75190 18.42909 13845 ft 361 kts 84°
2026-04-26 15:17 59.75169 18.47906 14568 ft 365 kts 84°
2026-04-26 15:18 59.75146 18.52988 15219 ft 371 kts 83°
2026-04-26 15:18 59.75119 18.58149 15908 ft 376 kts 83°
2026-04-26 15:18 59.75090 18.63375 16585 ft 382 kts 82°
2026-04-26 15:18 59.75058 18.68666 17326 ft 386 kts 82°
2026-04-26 15:19 59.75078 18.73993 18065 ft 383 kts 74°
2026-04-26 15:19 59.75793 18.78913 18645 ft 365 kts 53°
2026-04-26 15:19 59.77103 18.83129 19291 ft 357 kts 45°
2026-04-26 15:19 59.78531 18.87184 19912 ft 359 kts 44°
2026-04-26 15:20 59.79988 18.91244 20489 ft 363 kts 44°
2026-04-26 15:20 59.81455 18.95356 21073 ft 367 kts 44°
2026-04-26 15:20 59.82926 18.99528 21709 ft 369 kts 44°
2026-04-26 15:20 59.84380 19.03705 22501 ft 366 kts 44°
2026-04-26 15:21 59.85819 19.07868 23337 ft 363 kts 43°
2026-04-26 15:21 59.87244 19.12007 24001 ft 362 kts 43°
2026-04-26 15:21 59.88668 19.16143 24573 ft 362 kts 43°
2026-04-26 15:21 59.90017 19.20068 25139 ft 362 kts 43°
2026-04-26 15:22 59.91301 19.23813 25706 ft 360 kts 43°
2026-04-26 15:22 59.92712 19.27932 26357 ft 359 kts 42°
2026-04-26 15:22 59.94114 19.32031 26960 ft 358 kts 42°
2026-04-26 15:22 59.95520 19.36146 27013 ft 359 kts 42°
2026-04-26 15:23 59.96800 19.40492 27038 ft 369 kts 51°
2026-04-26 15:23 59.97737 19.45369 27039 ft 385 kts 61°
2026-04-26 15:23 59.98410 19.50581 27050 ft 389 kts 63°
2026-04-26 15:23 59.99035 19.55846 27046 ft 390 kts 63°
2026-04-26 15:24 59.99640 19.61062 27040 ft 391 kts 64°
2026-04-26 15:24 60.00254 19.66356 27039 ft 391 kts 63°
2026-04-26 15:24 60.00873 19.71647 27025 ft 391 kts 63°
2026-04-26 15:24 60.01497 19.76933 27023 ft 391 kts 63°
2026-04-26 15:25 60.02123 19.82217 27022 ft 391 kts 63°
2026-04-26 15:25 60.02543 19.85759 27021 ft 390 kts 63°
2026-04-26 15:25 60.03373 19.92763 27023 ft 390 kts 63°
2026-04-26 15:25 60.03999 19.98047 27022 ft 390 kts 63°
2026-04-26 15:26 60.04621 20.03321 27020 ft 390 kts 63°
2026-04-26 15:26 60.05242 20.08602 27019 ft 389 kts 63°
2026-04-26 15:26 60.05859 20.13870 27024 ft 389 kts 63°
2026-04-26 15:26 60.06475 20.19150 27024 ft 389 kts 63°
2026-04-26 15:27 60.07088 20.24429 27019 ft 389 kts 63°
2026-04-26 15:27 60.07699 20.29706 27023 ft 389 kts 63°
2026-04-26 15:27 60.08309 20.34989 27080 ft 389 kts 63°
2026-04-26 15:27 60.08917 20.40278 27021 ft 390 kts 63°
2026-04-26 15:28 60.09522 20.45566 27023 ft 389 kts 63°
2026-04-26 15:28 60.10124 20.50853 27010 ft 389 kts 63°
2026-04-26 15:28 60.10723 20.56131 27005 ft 388 kts 63°
2026-04-26 15:28 60.11319 20.61402 27005 ft 388 kts 63°
2026-04-26 15:29 60.11912 20.66673 26994 ft 387 kts 63°
2026-04-26 15:29 60.12502 20.71933 26999 ft 387 kts 63°
2026-04-26 15:29 60.13677 20.82455 27002 ft 386 kts 63°
2026-04-26 15:30 60.14844 20.92980 27005 ft 387 kts 63°
2026-04-26 15:30 60.15417 20.98181 26997 ft 387 kts 64°
2026-04-26 15:30 60.15996 21.03458 26995 ft 388 kts 64°
2026-04-26 15:31 60.16574 21.08752 26988 ft 388 kts 64°
2026-04-26 15:31 60.17725 21.19355 27016 ft 389 kts 64°
2026-04-26 15:31 60.18298 21.24669 26986 ft 389 kts 64°
2026-04-26 15:32 60.19060 21.31769 26977 ft 388 kts 64°
2026-04-26 15:32 60.19998 21.40557 27002 ft 387 kts 64°
2026-04-26 15:32 60.20560 21.45849 26981 ft 386 kts 64°
2026-04-26 15:33 60.21115 21.51115 26977 ft 385 kts 64°
2026-04-26 15:33 60.21666 21.56372 26973 ft 384 kts 64°
2026-04-26 15:33 60.22215 21.61622 26963 ft 383 kts 64°
2026-04-26 15:33 60.22761 21.66859 26965 ft 382 kts 64°
2026-04-26 15:34 60.23305 21.72093 26968 ft 382 kts 64°
2026-04-26 15:34 60.23848 21.77329 26968 ft 382 kts 64°
2026-04-26 15:34 60.24390 21.82579 26969 ft 383 kts 64°
2026-04-26 15:34 60.24930 21.87832 26958 ft 384 kts 64°
2026-04-26 15:35 60.25468 21.93090 27015 ft 384 kts 65°
2026-04-26 15:35 60.26003 21.98357 26965 ft 381 kts 65°
2026-04-26 15:35 60.26522 22.03542 26702 ft 375 kts 65°
2026-04-26 15:35 60.27032 22.08646 26441 ft 370 kts 64°
2026-04-26 15:36 60.27540 22.13710 26077 ft 367 kts 64°
2026-04-26 15:36 60.28043 22.18724 25742 ft 363 kts 64°
2026-04-26 15:36 60.28539 22.23696 25396 ft 361 kts 64°
2026-04-26 15:36 60.29031 22.28629 25042 ft 358 kts 64°
2026-04-26 15:37 60.29517 22.33536 24692 ft 356 kts 64°
2026-04-26 15:37 60.29842 22.36827 24470 ft 354 kts 64°
2026-04-26 15:37 60.30320 22.41678 24131 ft 352 kts 64°
2026-04-26 15:37 60.30946 22.48062 23688 ft 349 kts 64°
2026-04-26 15:38 60.31256 22.51233 23510 ft 348 kts 65°
2026-04-26 15:38 60.31729 22.56046 23070 ft 355 kts 66°
2026-04-26 15:38 60.32234 22.61108 22709 ft 380 kts 67°
2026-04-26 15:38 60.32749 22.66410 22317 ft 387 kts 68°
2026-04-26 15:39 60.33251 22.71729 22075 ft 386 kts 68°
2026-04-26 15:39 60.33747 22.77027 21732 ft 384 kts 70°
2026-04-26 15:39 60.34245 22.82314 21345 ft 382 kts 70°
2026-04-26 15:39 60.34579 22.85862 21098 ft 380 kts 70°
2026-04-26 15:40 60.35230 22.92772 20587 ft 377 kts 71°
2026-04-26 15:40 60.35716 22.97950 20211 ft 374 kts 71°
2026-04-26 15:40 60.36194 23.03059 19844 ft 371 kts 71°
2026-04-26 15:40 60.36668 23.08155 19473 ft 368 kts 72°
2026-04-26 15:41 60.37138 23.13229 19120 ft 366 kts 72°
2026-04-26 15:41 60.37603 23.18261 18762 ft 363 kts 72°
2026-04-26 15:41 60.38062 23.23255 18386 ft 360 kts 72°
2026-04-26 15:41 60.38518 23.28236 18006 ft 358 kts 73°
2026-04-26 15:42 60.38967 23.33165 17625 ft 355 kts 72°
2026-04-26 15:42 60.39408 23.38044 17279 ft 351 kts 72°
2026-04-26 15:42 60.39844 23.42873 16929 ft 348 kts 72°
2026-04-26 15:42 60.40276 23.47675 16582 ft 345 kts 72°
2026-04-26 15:43 60.40702 23.52426 16257 ft 342 kts 72°
2026-04-26 15:43 60.41123 23.57157 15884 ft 341 kts 73°
2026-04-26 15:43 60.41960 23.66580 15191 ft 338 kts 73°
2026-04-26 15:44 60.42373 23.71257 14834 ft 337 kts 73°
2026-04-26 15:44 60.43185 23.80504 14154 ft 335 kts 73°
2026-04-26 15:44 60.43587 23.85140 13804 ft 333 kts 74°
2026-04-26 15:45 60.44234 23.94382 13193 ft 329 kts 77°
2026-04-26 15:45 60.44484 23.98977 12918 ft 328 kts 77°
2026-04-26 15:46 60.44999 24.08182 12361 ft 328 kts 77°
2026-04-26 15:46 60.45260 24.12773 12002 ft 328 kts 77°
2026-04-26 15:46 60.45519 24.17350 11631 ft 327 kts 77°
2026-04-26 15:46 60.45690 24.20388 11406 ft 327 kts 77°
2026-04-26 15:47 60.45559 24.26450 11107 ft 332 kts 103°
2026-04-26 15:47 60.43837 24.35027 10494 ft 326 kts 108°
2026-04-26 15:47 60.42963 24.39231 10187 ft 322 kts 108°
2026-04-26 15:48 60.42110 24.43354 10039 ft 313 kts 108°
2026-04-26 15:48 60.41282 24.47390 9745 ft 310 kts 107°
2026-04-26 15:48 60.40469 24.51373 9405 ft 302 kts 107°
2026-04-26 15:48 60.39676 24.55260 9095 ft 297 kts 107°
2026-04-26 15:49 60.38894 24.59107 8797 ft 295 kts 107°
2026-04-26 15:49 60.38118 24.62915 8505 ft 292 kts 107°
2026-04-26 15:49 60.37345 24.66695 8211 ft 290 kts 107°
2026-04-26 15:49 60.36576 24.70440 7913 ft 285 kts 107°
2026-04-26 15:50 60.35725 24.73939 7620 ft 283 kts 123°
2026-04-26 15:50 60.34262 24.76459 7373 ft 283 kts 148°
2026-04-26 15:50 60.32519 24.78320 7120 ft 284 kts 152°
2026-04-26 15:50 60.30733 24.80112 6849 ft 288 kts 152°
2026-04-26 15:51 60.28941 24.81904 6550 ft 288 kts 152°
2026-04-26 15:51 60.27160 24.83700 6262 ft 284 kts 152°
2026-04-26 15:51 60.25415 24.85477 5999 ft 279 kts 151°
2026-04-26 15:51 60.23698 24.87235 5717 ft 276 kts 151°
2026-04-26 15:52 60.21989 24.88985 5483 ft 274 kts 151°
2026-04-26 15:52 60.20301 24.90715 5243 ft 272 kts 151°
2026-04-26 15:52 60.18622 24.92434 5015 ft 270 kts 151°
2026-04-26 15:52 60.17510 24.93573 4879 ft 272 kts 151°
2026-04-26 15:53 60.15262 24.95867 4721 ft 269 kts 151°
2026-04-26 15:53 60.13763 24.97999 4301 ft 265 kts 122°
2026-04-26 15:53 60.13125 25.01284 3803 ft 246 kts 84°
2026-04-26 15:53 60.13362 25.04541 3311 ft 232 kts 66°
2026-04-26 15:54 60.13984 25.07444 3086 ft 222 kts 54°
2026-04-26 15:54 60.14717 25.09999 2997 ft 199 kts 45°
2026-04-26 15:54 60.15730 25.11594 3017 ft 183 kts 18°
2026-04-26 15:54 60.16938 25.11873 3002 ft 171 kts 347°
2026-04-26 15:55 60.18073 25.11232 2888 ft 170 kts 342°
2026-04-26 15:55 60.19178 25.10409 2673 ft 168 kts 339°
2026-04-26 15:55 60.20218 25.09494 2461 ft 159 kts 336°
2026-04-26 15:55 60.21181 25.08561 2257 ft 152 kts 336°
2026-04-26 15:56 60.22121 25.07619 2075 ft 151 kts 335°
2026-04-26 15:56 60.23057 25.06667 1872 ft 143 kts 336°
2026-04-26 15:56 60.23877 25.05827 1677 ft 126 kts 336°
2026-04-26 15:56 60.24637 25.05049 1523 ft 122 kts 336°
2026-04-26 15:57 60.25394 25.04275 1360 ft 121 kts 336°
2026-04-26 15:57 60.26136 25.03516 1210 ft 123 kts 336°
2026-04-26 15:57 60.26882 25.02750 1046 ft 118 kts 336°
2026-04-26 15:57 60.27380 25.02242 936 ft 121 kts 334°
2026-04-26 15:58 60.28376 25.01220 733 ft 121 kts 333°
2026-04-26 15:58 60.29115 25.00463 570 ft 118 kts 332°
2026-04-26 15:58 60.29859 24.99698 457 ft 120 kts 331°
2026-04-26 15:58 60.30589 24.98953 281 ft 112 kts 332°
2026-04-26 15:59 60.31246 24.98282 189 ft 97 kts 333°
2026-04-26 15:59 60.31777 24.97733 174 ft 69 kts 333°
2026-04-26 15:59 60.32096 24.97407 170 ft 40 kts 333°
2026-04-26 15:59 60.32250 24.97246 169 ft 10 kts 332°
2026-04-26 16:00 60.32352 24.97133 168 ft 22 kts 324°
2026-04-26 16:00 60.32361 24.96915 168 ft 12 kts 230°
2026-04-26 16:00 60.32346 24.96880 168 ft 0 kts 228°
2026-04-26 16:00 60.32345 24.96878 168 ft 0 kts 228°
2026-04-26 16:01 60.32345 24.96877 168 ft 0 kts 228°
2026-04-26 16:01 60.32344 24.96875 168 ft 0 kts 228°
2026-04-26 16:01 60.32343 24.96872 168 ft 1 kts 228°
2026-04-26 16:02 60.32321 24.96851 168 ft 6 kts 187°
2026-04-26 16:02 60.32256 24.96867 168 ft 10 kts 198°
2026-04-26 16:02 60.32209 24.96780 168 ft 9 kts 226°
2026-04-26 16:02 60.32194 24.96749 167 ft 2 kts 226°
2026-04-26 16:03 60.32164 24.96726 167 ft 4 kts 192°
2026-04-26 16:03 60.32154 24.96721 167 ft 1 kts 191°
2026-04-26 16:03 60.32122 24.96769 168 ft 9 kts 104°
2026-04-26 16:03 60.32088 24.96808 169 ft 8 kts 243°
2026-04-26 16:04 60.32094 24.96773 168 ft 0 kts 299°
2026-04-26 16:04 60.32103 24.96754 168 ft 0 kts 312°
2026-04-26 16:04 60.32104 24.96754 168 ft 0 kts 312°